EW5684 Weather Reports


Display with metric or nautical units.
time (UTC)temp
F
wind
direction
speed
MPH
gust
MPH
rain 1hr
in
rain 24hr
in
rain mn
in
humidity
%
barometer
mb
20260901222736 76 0 4.0 5.0 0.00 0.00 0.00 43 1020.0
20260901222237 76 0 3.0 5.0 0.00 0.00 0.00 43 1020.1
20260901221737 76 0 3.0 5.0 0.00 0.00 0.00 43 1020.1
20260901221237 76 0 4.0 4.0 0.00 0.00 0.00 43 1020.1
20260901221004 76 0 3.0 5.0 0.00 0.00 0.00 44 1020.1
20260901220236 76 0 2.0 5.0 0.00 0.00 0.00 44 1020.1
20260901215737 77 0 0.0 4.0 0.00 0.00 0.00 44 1020.1
20260901215247 77 0 3.0 4.0 0.00 0.00 0.00 44 1020.1
20260901215004 77 0 2.0 4.0 0.00 0.00 0.00 44 1020.0
20260901214236 77 0 0.0 3.0 0.00 0.00 0.00 44 1019.9
20260901213736 77 0 2.0 4.0 0.00 0.00 0.00 44 1019.9
20260901213237 77 0 2.0 4.0 0.00 0.00 0.00 45 1019.9
20260901212736 77 0 2.0 5.0 0.00 0.00 0.00 45 1019.9
20260901212236 77 0 2.0 5.0 0.00 0.00 0.00 45 1019.8
20260901212006 77 0 3.0 5.0 0.00 0.00 0.00 45 1019.9
20260901211508 78 0 4.0 4.0 0.00 0.00 0.00 45 1019.9
20260901210736 78 0 3.0 4.0 0.00 0.00 0.00 45 1019.9
20260901210235 78 0 3.0 4.0 0.00 0.00 0.00 45 1019.9
20260901210007 78 0 1.0 3.0 0.00 0.00 0.00 45 1019.9
20260901205235 78 0 2.0 4.0 0.00 0.00 0.00 45 1019.9
20260901204736 78 0 1.0 4.0 0.00 0.00 0.00 45 1019.9
20260901204235 78 0 2.0 4.0 0.00 0.00 0.00 45 1019.9
20260901203735 78 0 2.0 4.0 0.00 0.00 0.00 44 1019.8
20260901203235 78 0 2.0 5.0 0.00 0.00 0.00 44 1019.8
20260901202735 79 0 2.0 5.0 0.00 0.00 0.00 44 1019.8
20260901202234 79 0 3.0 5.0 0.00 0.00 0.00 43 1019.8
20260901201735 79 0 3.0 5.0 0.00 0.00 0.00 43 1019.8
20260901201234 79 0 3.0 4.0 0.00 0.00 0.00 43 1019.7
20260901200735 79 0 2.0 6.0 0.00 0.00 0.00 42 1019.8
20260901200234 79 0 3.0 6.0 0.00 0.00 0.00 42 1019.7
20260901195735 80 0 4.0 5.0 0.00 0.00 0.00 42 1019.6
20260901195234 80 0 2.0 5.0 0.00 0.00 0.00 41 1019.7
20260901194734 80 0 2.0 5.0 0.00 0.00 0.00 41 1019.6
20260901194234 80 0 3.0 5.0 0.00 0.00 0.00 40 1019.5
20260901194215 80 0 4.0 6.0 0.00 0.00 0.00 39 1019.5
20260901193457 80 0 3.0 6.0 0.00 0.00 0.00 38 1019.4
20260901192734 81 0 3.0 4.0 0.00 0.00 0.00 38 1019.4
20260901192456 81 0 2.0 4.0 0.00 0.00 0.00 37 1019.4
20260901191733 81 0 2.0 5.0 0.00 0.00 0.00 37 1019.2
20260901191234 81 0 3.0 5.0 0.00 0.00 0.00 37 1019.1
20260901190733 82 0 3.0 5.0 0.00 0.00 0.00 37 1019.1
20260901190232 82 0 3.0 5.0 0.00 0.00 0.00 36 1019.1
20260901185733 82 0 2.0 4.0 0.00 0.00 0.00 35 1018.9
20260901185233 82 0 2.0 5.0 0.00 0.00 0.00 35 1018.8
20260901184732 82 0 2.0 5.0 0.00 0.00 0.00 34 1018.8
20260901184233 82 0 3.0 4.0 0.00 0.00 0.00 34 1018.8
20260901183956 82 0 2.0 4.0 0.00 0.00 0.00 34 1018.6
20260901183233 83 0 2.0 5.0 0.00 0.00 0.00 33 1018.6
20260901182733 83 0 3.0 5.0 0.00 0.00 0.00 33 1018.5
20260901182230 83 0 2.0 5.0 0.00 0.00 0.00 33 1018.4
20260901182005 83 0 2.0 5.0 0.00 0.00 0.00 33 1018.4
20260901181231 83 0 3.0 6.0 0.00 0.00 0.00 33 1018.4
20260901180736 83 0 3.0 6.0 0.00 0.00 0.00 33 1018.3
20260901180232 84 0 3.0 7.0 0.00 0.00 0.00 33 1018.2
20260901175951 84 0 4.0 7.0 0.00 0.00 0.00 33 1018.2
20260901175714 84 34 4.0 6.0 0.00 0.00 0.00 33 1018.2
20260901174731 85 0 4.0 6.0 0.00 0.00 0.00 33 1018.1
20260901174232 85 0 3.0 11.0 0.00 0.00 0.00 32 1018.1
20260901173731 85 69 6.0 11.0 0.00 0.00 0.00 32 1018.2
20260901173231 85 51 2.0 6.0 0.00 0.00 0.00 31 1018.1
20260901172731 85 62 3.0 10.0 0.00 0.00 0.00 31 1018.0
20260901172231 85 73 5.0 10.0 0.00 0.00 0.00 31 1018.1
20260901171731 86 63 4.0 9.0 0.00 0.00 0.00 31 1018.0
20260901171448 86 69 2.0 6.0 0.00 0.00 0.00 30 1018.0
20260901170730 86 62 5.0 9.0 0.00 0.00 0.00 30 1017.9
20260901170230 86 65 5.0 9.0 0.00 0.00 0.00 30 1017.9
20260901165730 87 82 3.0 6.0 0.00 0.00 0.00 30 1017.9
20260901165230 87 47 3.0 7.0 0.00 0.00 0.00 30 1017.9
20260901164730 87 72 3.0 9.0 0.00 0.00 0.00 30 1017.9
20260901164231 87 59 5.0 9.0 0.00 0.00 0.00 30 1017.9
20260901163731 87 80 4.0 10.0 0.00 0.00 0.00 30 1018.0
20260901163231 87 72 8.0 10.0 0.00 0.00 0.00 29 1018.0
20260901162731 88 28 5.0 6.0 0.00 0.00 0.00 29 1018.0
20260901162231 88 25 4.0 7.0 0.00 0.00 0.00 30 1018.0
20260901161730 88 30 5.0 9.0 0.00 0.00 0.00 30 1018.1
20260901161723 88 37 6.0 9.0 0.00 0.00 0.00 29 1018.1
20260901160730 88 348 4.0 10.0 0.00 0.00 0.00 29 1018.0
20260901160229 88 61 5.0 10.0 0.00 0.00 0.00 29 1018.0
20260901155949 88 317 4.0 12.0 0.00 0.00 0.00 29 1017.9
20260901155229 89 13 8.0 12.0 0.00 0.00 0.00 28 1018.0
20260901154729 89 75 5.0 11.0 0.00 0.00 0.00 29 1018.0
20260901154231 89 75 8.0 11.0 0.00 0.00 0.00 28 1018.0
20260901153730 89 80 2.0 10.0 0.00 0.00 0.00 27 1017.9
20260901153230 89 62 6.0 10.0 0.00 0.00 0.00 27 1018.0
20260901152729 90 90 2.0 12.0 0.00 0.00 0.00 27 1018.0
20260901152230 90 71 9.0 12.0 0.00 0.00 0.00 26 1017.9
20260901151729 90 90 1.0 7.0 0.00 0.00 0.00 26 1018.0
20260901151229 90 90 3.0 9.0 0.00 0.00 0.00 25 1018.0
20260901150949 91 94 6.0 9.0 0.00 0.00 0.00 24 1018.0
20260901150229 90 118 0.0 6.0 0.00 0.00 0.00 23 1018.1
20260901150213 89 89 4.0 6.0 0.00 0.00 0.00 23 1018.0
20260901145229 90 193 6.0 6.0 0.00 0.00 0.00 22 1018.1
20260901144729 90 102 2.0 7.0 0.00 0.00 0.00 22 1018.1
20260901144229 90 135 2.0 7.0 0.00 0.00 0.00 21 1018.2
20260901143950 90 180 2.0 10.0 0.00 0.00 0.00 21 1018.1
20260901143452 89 203 2.0 10.0 0.00 0.00 0.00 22 1018.2
20260901142728 89 199 6.0 9.0 0.00 0.00 0.00 21 1018.2
20260901142228 89 243 4.0 7.0 0.00 0.00 0.00 21 1018.2
20260901141728 89 121 1.0 6.0 0.00 0.00 0.00 22 1018.3
20260901141228 89 165 4.0 7.0 0.00 0.00 0.00 22 1018.3
20260901140727 89 265 5.0 7.0 0.00 0.00 0.00 23 1018.3
20260901140227 89 213 3.0 9.0 0.00 0.00 0.00 22 1018.4
20260901135728 89 185 5.0 9.0 0.00 0.00 0.00 22 1018.4
20260901135447 90 162 2.0 5.0 0.00 0.00 0.00 20 1018.4
20260901134953 88 207 2.0 4.0 0.00 0.00 0.00 21 1018.5
20260901134447 89 243 2.0 4.0 0.00 0.00 0.00 21 1018.6
20260901133733 89 92 0.0 6.0 0.00 0.00 0.00 20 1018.6
20260901133227 90 131 4.0 7.0 0.00 0.00 0.00 19 1018.6
20260901132727 90 114 5.0 9.0 0.00 0.00 0.00 20 1018.7
20260901132227 89 185 3.0 11.0 0.00 0.00 0.00 21 1018.6
20260901131728 90 140 8.0 11.0 0.00 0.00 0.00 21 1018.7
20260901131227 90 104 1.0 11.0 0.00 0.00 0.00 24 1018.7
20260901130727 89 313 4.0 6.0 0.00 0.00 0.00 24 1018.7
20260901130226 89 104 3.0 6.0 0.00 0.00 0.00 26 1018.8
20260901125726 89 68 4.0 6.0 0.00 0.00 0.00 26 1018.8
20260901125226 89 358 4.0 6.0 0.00 0.00 0.00 24 1018.8
20260901124725 89 7 2.0 6.0 0.00 0.00 0.00 24 1018.9
20260901124226 88 269 3.0 7.0 0.00 0.00 0.00 22 1018.9
20260901123726 88 78 2.0 7.0 0.00 0.00 0.00 23 1019.0
20260901123226 88 54 3.0 6.0 0.00 0.00 0.00 22 1019.0
20260901122725 88 99 1.0 7.0 0.00 0.00 0.00 22 1019.1
20260901122225 89 69 4.0 7.0 0.00 0.00 0.00 22 1019.1
20260901121726 89 106 3.0 10.0 0.00 0.00 0.00 21 1019.0
20260901121449 89 96 4.0 11.0 0.00 0.00 0.00 21 1019.1
20260901120726 89 107 3.0 11.0 0.00 0.00 0.00 21 1019.0
20260901120448 89 155 3.0 6.0 0.00 0.00 0.00 20 1019.0
20260901115725 88 94 3.0 7.0 0.00 0.00 0.00 19 1019.1
20260901115225 88 85 5.0 7.0 0.00 0.00 0.00 19 1019.2
20260901114724 88 104 3.0 11.0 0.00 0.00 0.00 19 1019.1
20260901114225 88 52 5.0 11.0 0.00 0.00 0.00 21 1019.1
20260901113725 88 76 7.0 9.0 0.00 0.00 0.00 19 1019.4
20260901113447 88 102 2.0 5.0 0.00 0.00 0.00 19 1019.2
20260901112724 88 73 3.0 7.0 0.00 0.00 0.00 21 1019.4
20260901112425 87 316 2.0 6.0 0.00 0.00 0.00 21 1019.5
20260901112417 86 247 5.0 7.0 0.00 0.00 0.00 19 1019.5
20260901111224 86 63 2.0 7.0 0.00 0.00 0.00 21 1019.5
20260901110724 86 71 5.0 7.0 0.00 0.00 0.00 21 1019.5
20260901110441 86 61 5.0 7.0 0.00 0.00 0.00 21 1019.6
20260901105723 86 16 1.0 5.0 0.00 0.00 0.00 21 1019.7
20260901105445 86 78 2.0 4.0 0.00 0.00 0.00 21 1019.7
20260901104723 87 59 3.0 4.0 0.00 0.00 0.00 20 1019.8
20260901104223 86 275 2.0 4.0 0.00 0.00 0.00 22 1019.8
20260901103723 86 144 1.0 5.0 0.00 0.00 0.00 21 1019.8
20260901103446 85 123 3.0 5.0 0.00 0.00 0.00 22 1019.9
20260901102723 85 87 1.0 4.0 0.00 0.00 0.00 23 1019.9
20260901102223 84 51 3.0 6.0 0.00 0.00 0.00 24 1020.0
20260901101723 84 106 1.0 6.0 0.00 0.00 0.00 23 1020.0
20260901101222 84 42 2.0 6.0 0.00 0.00 0.00 23 1020.0
20260901100722 84 63 3.0 5.0 0.00 0.00 0.00 24 1020.1
20260901100222 84 62 3.0 5.0 0.00 0.00 0.00 25 1020.0
20260901095722 84 302 2.0 9.0 0.00 0.00 0.00 25 1020.1
20260901095222 83 321 6.0 9.0 0.00 0.00 0.00 26 1020.1
20260901094722 82 113 3.0 7.0 0.00 0.00 0.00 26 1020.1
20260901094222 83 73 5.0 7.0 0.00 0.00 0.00 26 1020.2
20260901094207 83 68 5.0 9.0 0.00 0.00 0.00 26 1020.2
20260901093221 83 44 6.0 9.0 0.00 0.00 0.00 26 1020.1
20260901092721 84 55 4.0 7.0 0.00 0.00 0.00 26 1020.2
20260901092451 85 331 5.0 7.0 0.00 0.00 0.00 26 1020.2
20260901091722 85 56 1.0 2.0 0.00 0.00 0.00 25 1020.3
20260901091221 83 55 1.0 3.0 0.00 0.00 0.00 25 1020.2
20260901090721 82 34 1.0 5.0 0.00 0.00 0.00 26 1020.2
20260901090221 82 62 3.0 5.0 0.00 0.00 0.00 26 1020.2
20260901085721 82 66 3.0 5.0 0.00 0.00 0.00 25 1020.1
20260901085220 82 89 2.0 4.0 0.00 0.00 0.00 27 1020.1
20260901084721 82 171 1.0 4.0 0.00 0.00 0.00 27 1020.0
20260901084446 82 168 1.0 6.0 0.00 0.00 0.00 27 1020.0
20260901083720 82 117 2.0 6.0 0.00 0.00 0.00 28 1020.0
20260901083221 81 131 3.0 5.0 0.00 0.00 0.00 28 1019.9
20260901082937 80 202 2.0 6.0 0.00 0.00 0.00 29 1019.9
20260901082220 81 182 3.0 6.0 0.00 0.00 0.00 28 1019.8
20260901081720 80 193 2.0 4.0 0.00 0.00 0.00 28 1019.7
20260901081220 80 203 3.0 4.0 0.00 0.00 0.00 28 1019.7
20260901080720 80 190 2.0 6.0 0.00 0.00 0.00 29 1019.6
20260901080219 80 203 4.0 6.0 0.00 0.00 0.00 28 1019.5
20260901075719 80 179 2.0 5.0 0.00 0.00 0.00 28 1019.4
20260901075219 79 134 2.0 5.0 0.00 0.00 0.00 28 1019.4
20260901074720 80 185 3.0 4.0 0.00 0.00 0.00 28 1019.4
20260901074219 79 197 3.0 4.0 0.00 0.00 0.00 30 1019.2
20260901073720 79 176 2.0 3.0 0.00 0.00 0.00 29 1019.2
20260901073219 79 195 2.0 3.0 0.00 0.00 0.00 29 1019.2
20260901072719 79 200 2.0 4.0 0.00 0.00 0.00 30 1019.4
20260901072219 78 199 1.0 4.0 0.00 0.00 0.00 29 1019.4
20260901071719 78 189 2.0 3.0 0.00 0.00 0.00 30 1019.2
20260901071219 78 188 0.0 3.0 0.00 0.00 0.00 30 1019.2
20260901070719 77 188 0.0 0.0 0.00 0.00 0.00 29 1019.2
20260901070218 76 183 0.0 0.0 0.00 0.00 0.00 30 1019.2
20260901065718 76 183 0.0 0.0 0.00 0.00 0.00 31 1019.2
20260901065219 75 183 0.0 0.0 0.00 0.00 0.00 32 1019.1
20260901064718 74 183 0.0 0.0 0.00 0.00 0.00 35 1019.1
20260901064218 74 183 0.0 0.0 0.00 0.00 0.00 35 1019.1
20260901063718 73 183 0.0 0.0 0.00 0.00 0.00 34 1019.1
20260901063223 72 183 0.0 0.0 0.00 0.00 0.00 34 1019.2
20260901062717 72 183 0.0 0.0 0.00 0.00 0.00 34 1019.1
20260901062218 72 183 0.0 0.0 0.00 0.00 0.00 36 1019.1
20260901062154 72 183 0.0 0.0 0.00 0.00 0.00 36 1019.1
20260901061217 72 183 0.0 0.0 0.00 0.00 0.00 35 1019.0
20260901060717 71 0 0.0 0.0 0.00 0.00 0.00 35 1019.0
20260901060434 71 0 0.0 3.0 0.00 0.00 0.00 34 1018.9
20260901055717 72 0 2.0 3.0 0.00 0.00 0.00 34 1018.9
20260901055442 72 0 2.0 3.0 0.00 0.00 0.00 31 1018.8
20260901055202 73 0 0.0 3.0 0.00 0.00 0.00 28 1018.8
20260901054218 73 0 0.0 5.0 0.00 0.00 0.00 24 1018.7
20260901053716 73 0 3.0 5.0 0.00 0.00 0.00 24 1018.6
20260901053216 73 0 3.0 6.0 0.00 0.00 0.00 25 1018.5
20260901052716 72 0 3.0 9.0 0.00 0.00 0.00 24 1018.4
20260901052216 72 0 6.0 9.0 0.00 0.00 0.00 24 1018.4
20260901051943 72 0 4.0 7.0 0.00 0.00 0.00 25 1018.4
20260901051216 72 0 5.0 7.0 0.00 0.00 0.00 26 1018.4
20260901050716 71 0 4.0 6.0 0.00 0.00 0.00 26 1018.4
20260901050216 71 0 4.0 5.0 0.00 0.00 0.00 26 1018.4
20260901045749 71 0 4.0 5.0 0.00 0.00 0.00 27 1018.3
20260901045215 71 0 3.0 5.0 0.00 0.00 0.00 27 1018.2
20260901044715 71 0 1.0 3.0 0.00 0.00 0.00 27 1018.2
20260901044214 71 0 1.0 3.0 0.00 0.00 0.00 28 1018.2
20260901043714 72 0 2.0 5.0 0.00 0.00 0.00 28 1018.1
20260901043214 72 0 2.0 5.0 0.00 0.00 0.00 28 1018.0
20260901042713 72 0 4.0 5.0 0.00 0.00 0.00 28 1018.1
20260901042214 72 0 2.0 4.0 0.00 0.00 0.00 28 1018.0
20260901041714 72 0 3.0 4.0 0.00 0.00 0.00 27 1018.0
20260901041213 72 0 3.0 5.0 0.00 0.00 0.00 27 1018.0
20260901040713 72 0 2.0 5.0 0.00 0.00 0.00 27 1018.0
20260901040214 72 0 2.0 5.0 0.00 0.00 0.00 27 1018.0
20260901035937 73 0 2.0 6.0 0.00 0.00 0.00 27 1017.9
20260901035213 73 0 3.0 6.0 0.00 0.00 0.00 27 1017.9
20260901034713 73 0 4.0 7.0 0.00 0.00 0.00 27 1017.8
20260901034656 73 0 4.0 7.0 0.00 0.00 0.00 26 1017.8
20260901033712 74 0 3.0 6.0 0.00 0.00 0.00 26 1017.7
20260901033213 74 0 2.0 4.0 0.00 0.00 0.00 26 1017.7
20260901032713 74 0 3.0 4.0 0.00 0.00 0.00 26 1017.7
20260901032432 74 0 2.0 4.0 0.00 0.00 0.00 26 1017.7
20260901031712 74 0 2.0 7.0 0.00 0.00 0.00 27 1017.6
20260901031212 74 0 4.0 10.0 0.00 0.00 0.00 27 1017.5
20260901030712 74 0 6.0 10.0 0.00 0.00 0.00 32 1017.5
20260901030212 74 0 4.0 9.0 0.00 0.00 0.00 32 1017.5
20260901025712 73 0 5.0 9.0 0.00 0.00 0.00 33 1017.5
20260901025212 73 0 3.0 6.0 0.00 0.00 0.00 34 1017.6
20260901024712 73 0 4.0 6.0 0.00 0.00 0.00 34 1017.6
20260901024212 73 0 3.0 6.0 0.00 0.00 0.00 34 1017.6
20260901023711 73 0 3.0 5.0 0.00 0.00 0.00 34 1017.5
20260901023211 73 0 3.0 6.0 0.00 0.00 0.00 34 1017.5
20260901022711 73 0 4.0 7.0 0.00 0.00 0.00 36 1017.6
20260901022211 73 0 6.0 7.0 0.00 0.00 0.00 34 1017.5
20260901021711 73 0 2.0 3.0 0.00 0.00 0.00 34 1017.5
20260901021211 73 0 2.0 5.0 0.00 0.00 0.00 38 1017.5
20260901020711 73 0 3.0 5.0 0.00 0.00 0.00 39 1017.4
20260901020210 73 0 3.0 5.0 0.00 0.00 0.00 40 1017.5
20260901015939 73 0 4.0 6.0 0.00 0.00 0.00 40 1017.5
20260901015210 73 0 4.0 6.0 0.00 0.00 0.00 39 1017.5
20260901014710 72 0 4.0 7.0 0.00 0.00 0.00 38 1017.4
20260901014655 72 0 3.0 7.0 0.00 0.00 0.00 37 1017.3
20260901013710 71 0 3.0 7.0 0.00 0.00 0.00 37 1017.3
20260901013210 69 0 5.0 7.0 0.00 0.00 0.00 38 1017.3
20260901012710 69 0 2.0 6.0 0.00 0.00 0.00 42 1017.3
20260901012210 69 0 1.0 5.0 0.00 0.00 0.00 42 1017.3
20260901011709 68 0 3.0 5.0 0.00 0.00 0.00 45 1017.2
20260901011209 68 0 0.0 4.0 0.00 0.00 0.00 45 1017.2
20260901010710 69 0 4.0 4.0 0.00 0.00 0.00 44 1017.1
20260901010209 70 0 2.0 3.0 0.00 0.00 0.00 40 1017.0
20260901005709 71 0 0.0 2.0 0.00 0.00 0.00 34 1017.1
20260901005209 71 0 1.0 4.0 0.00 0.00 0.00 36 1017.0
20260901004931 70 0 3.0 6.0 0.00 0.00 0.00 31 1017.0
20260901004208 70 0 2.0 6.0 0.00 0.00 0.00 37 1016.9
20260901003709 69 0 1.0 6.0 0.00 0.00 0.00 40 1016.9
20260901003209 69 0 2.0 6.0 0.00 0.00 0.00 43 1017.0
20260901002709 69 0 0.0 6.0 0.00 0.00 0.00 41 1016.9
20260901002208 70 0 2.0 6.0 0.00 0.00 0.00 41 1016.8
20260901001709 72 0 4.0 5.0 0.00 0.00 0.00 35 1016.9
20260901001208 73 0 0.0 4.0 0.00 0.00 0.00 34 1016.8
20260901000708 73 0 0.0 4.0 0.00 0.00 0.00 31 1016.7
20260901000211 74 0 2.0 6.0 0.00 0.00 0.00 28 1016.7
20260831235707 74 0 2.0 7.0 0.00 0.00 0.00 28 1016.8
20260831235207 73 0 4.0 7.0 0.00 0.00 0.00 30 1016.8
20260831234709 73 0 2.0 9.0 0.00 0.00 0.00 31 1016.8
20260831234428 72 0 4.0 9.0 0.00 0.00 0.00 31 1016.8
20260831233707 72 0 0.0 4.0 0.00 0.00 0.00 36 1016.8
20260831233207 72 0 2.0 4.0 0.00 0.00 0.00 35 1016.8
20260831232708 73 0 0.0 3.0 0.00 0.00 0.00 32 1016.8
20260831232207 74 0 1.0 3.0 0.00 0.00 0.00 31 1016.7
20260831231707 75 0 0.0 0.0 0.00 0.00 0.00 26 1016.7
20260831231206 75 0 0.0 3.0 0.00 0.00 0.00 27 1016.7
20260831230706 75 0 0.0 3.0 0.00 0.00 0.00 29 1016.7
20260831230411 78 0 0.0 3.0 0.00 0.00 0.00 23 1016.7
20260831230401 76 0 2.0 2.0 0.00 0.00 0.00 27 1016.8
20260831225206 79 0 0.0 4.0 0.00 0.00 0.00 24 1016.7
20260831224925 81 0 2.0 7.0 0.00 0.00 0.00 20 1016.7
20260831224206 81 0 6.0 11.0 0.00 0.00 0.00 19 1016.5
20260831223706 81 0 4.0 11.0 0.00 0.00 0.00 19 1016.5
20260831223206 81 0 7.0 9.0 0.00 0.00 0.00 19 1016.5